Вернуться в каталог

FLOCK 4G 15

АктивенНаукаSSO
NORAD 62678·PAYLOAD·🇺🇸 United States

Запущен Jan 14, 2025 с Vandenberg Space Force Base

Loading…

Ближайшие Пролёты (ближайшие 24 часа)

TLE

СвежийSource: CelesTrak SupGP

Эпоха: Sep 14, 2026, 06:45 UTC

1 62678C 25009BX  26257.28136574  .00008491  00000+0  28374-3 0  2578
2 62678  97.3966 338.8267 0004592  21.2893 247.5661 15.31056053    14

Отслеживайте FLOCK 4G 15 в реальном времени с AllMySat

Download on the App Store